Weather History for Cody, WY

Change the Weather History Date:

Friday, April 25, 2014

  Actual Average Record
Temperature  
Mean Temperature 50 °F -  
Max Temperature 60 °F 57 °F 81 °F (1927)
Min Temperature 39 °F 34 °F 19 °F (1960)
Degree Days  
Heating Degree Days 16    
Moisture  
Dew Point 31 °F    
Average Humidity 50    
Maximum Humidity 76    
Minimum Humidity 29    
Precipitation  
Precipitation 0.00 in - - ()
Sea Level Pressure  
Sea Level Pressure 29.73 in    
Wind  
Wind Speed 7 mph (South)    
Max Wind Speed 16 mph    
Max Gust Speed 23 mph    
Visibility 10 miles    
Events      
Averages and records for this station are not official NWS values.
T = Trace of Precipitation, MM = Missing Value Source: NWS Daily Summary

Daily Weather History Graph

Daily Weather History Graph

Search for Another Location

Airport:

Trip Planner

Search our weather history database for the weather conditions in past years. The results will help you decide how hot, cold, wet, or windy it might be!

Date:

Astronomy

Apr. 25, 2014 Rise Set
Actual Time 6:15 AM MDT 8:13 PM MDT
Civil Twilight 5:44 AM MDT 8:44 PM MDT
Nautical Twilight 5:05 AM MDT 9:23 PM MDT
Astronomical Twilight 4:23 AM MDT 10:05 PM MDT
Moon 4:15 AM MDT (4/25) 4:30 PM MDT (4/25)
Length of Visible Light 15h 00m
Length of Day
13h 57m
Waning Crescent, 15% of the Moon is Illuminated
Apr 25
Waning Crescent
Apr 29
New
May 6
First Quarter
May 14
Full
May 21
Last Quarter

Hourly Weather History & Observations

Time (MDT) Temp. Windchill Dew Point Humidity Pressure Visibility Wind Dir Wind Speed Gust Speed Precip Events Conditions
12:15 AM 44.6 °F 39.7 °F 32.0 °F 61% 29.85 in 10.0 mi West 9.2 mph - N/A   Overcast
12:35 AM 44.6 °F 40.2 °F 30.2 °F 57% 29.85 in 10.0 mi SW 8.1 mph - N/A   Scattered Clouds
12:55 AM 42.8 °F 37.0 °F 30.2 °F 61% 29.85 in 10.0 mi South 10.4 mph - N/A   Partly Cloudy
1:15 AM 42.8 °F 37.0 °F 32.0 °F 66% 29.85 in 10.0 mi South 10.4 mph - N/A   Clear
1:35 AM 42.8 °F 36.2 °F 30.2 °F 61% 29.84 in 10.0 mi SW 12.7 mph - N/A   Clear
1:55 AM 44.6 °F 38.8 °F 28.4 °F 53% 29.83 in 10.0 mi SSW 11.5 mph - N/A   Clear
2:15 AM 42.8 °F 36.6 °F 30.2 °F 61% 29.83 in 10.0 mi SSW 11.5 mph - N/A   Clear
2:35 AM 42.8 °F 35.8 °F 30.2 °F 61% 29.82 in 10.0 mi SSW 13.8 mph - N/A   Clear
2:55 AM 42.8 °F 36.6 °F 30.2 °F 61% 29.82 in 10.0 mi SSW 11.5 mph - N/A   Clear
3:15 AM 44.6 °F 38.4 °F 30.2 °F 57% 29.82 in 10.0 mi SSW 12.7 mph - N/A   Clear
3:35 AM 42.8 °F 37.5 °F 30.2 °F 61% 29.82 in 10.0 mi SW 9.2 mph - N/A   Clear
3:55 AM 42.8 °F 36.6 °F 30.2 °F 61% 29.81 in 10.0 mi SW 11.5 mph - N/A   Clear
4:15 AM 41.0 °F 34.3 °F 30.2 °F 65% 29.81 in 10.0 mi SW 11.5 mph - N/A   Clear
4:35 AM 42.8 °F 36.6 °F 28.4 °F 57% 29.81 in 10.0 mi SW 11.5 mph - N/A   Clear
4:55 AM 42.8 °F 37.0 °F 30.2 °F 61% 29.81 in 10.0 mi SW 10.4 mph - N/A   Clear
5:15 AM 42.8 °F 38.0 °F 28.4 °F 57% 29.81 in 10.0 mi WSW 8.1 mph - N/A   Clear
5:35 AM 41.0 °F 34.7 °F 28.4 °F 61% 29.81 in 10.0 mi SW 10.4 mph - N/A   Clear
5:55 AM 39.2 °F 37.0 °F 30.2 °F 70% 29.81 in 10.0 mi NNW 3.5 mph - N/A   Clear
6:15 AM 39.2 °F 37.0 °F 28.4 °F 65% 29.81 in 10.0 mi East 3.5 mph - N/A   Clear
6:35 AM 39.2 °F - 28.4 °F 65% 29.81 in 10.0 mi Calm Calm - N/A   Clear
6:55 AM 39.2 °F 37.0 °F 28.4 °F 65% 29.81 in 10.0 mi ESE 3.5 mph - N/A   Clear
7:15 AM 42.8 °F - 28.4 °F 57% 29.81 in 10.0 mi Calm Calm - N/A   Clear
7:35 AM 42.8 °F 41.1 °F 28.4 °F 57% 29.81 in 10.0 mi West 3.5 mph - N/A   Clear
7:55 AM 42.8 °F - 30.2 °F 61% 29.81 in 10.0 mi Calm Calm - N/A   Clear
8:15 AM 42.8 °F - 30.2 °F 61% 29.81 in 10.0 mi Calm Calm - N/A   Clear
8:35 AM 44.6 °F - 30.2 °F 57% 29.81 in 10.0 mi Calm Calm - N/A   Clear
8:55 AM 44.6 °F 42.2 °F 30.2 °F 57% 29.81 in 10.0 mi SSE 4.6 mph - N/A   Clear
9:15 AM 46.4 °F 44.3 °F 30.2 °F 53% 29.81 in 10.0 mi SE 4.6 mph - N/A   Clear
9:35 AM 48.2 °F - 30.2 °F 50% 29.80 in 10.0 mi SE 5.8 mph - N/A   Clear
9:55 AM 48.2 °F - 30.2 °F 50% 29.79 in 10.0 mi ESE 5.8 mph - N/A   Partly Cloudy
10:15 AM 50.0 °F - 30.2 °F 47% 29.78 in 10.0 mi East 6.9 mph - N/A   Partly Cloudy
10:35 AM 51.8 °F - 30.2 °F 44% 29.78 in 10.0 mi ESE 5.8 mph - N/A   Partly Cloudy
10:55 AM 51.8 °F - 30.2 °F 44% 29.77 in 10.0 mi ESE 6.9 mph - N/A   Clear
11:15 AM 53.6 °F - 28.4 °F 38% 29.76 in 10.0 mi Calm Calm - N/A   Clear
11:35 AM 55.4 °F - 30.2 °F 38% 29.75 in 10.0 mi Calm Calm - N/A   Clear
11:55 AM 55.4 °F - 30.2 °F 38% 29.75 in 10.0 mi Calm Calm - N/A   Clear
12:15 PM 55.4 °F - 30.2 °F 38% 29.74 in 10.0 mi SW 5.8 mph - N/A   Clear
12:35 PM 57.2 °F - 28.4 °F 33% 29.73 in 10.0 mi ESE 6.9 mph - N/A   Clear
12:55 PM 57.2 °F - 28.4 °F 33% 29.72 in 10.0 mi South 4.6 mph - N/A   Clear
1:15 PM 59.0 °F - 28.4 °F 31% 29.71 in 10.0 mi East 6.9 mph - N/A   Clear
1:35 PM 59.0 °F - 28.4 °F 31% 29.70 in 10.0 mi East 4.6 mph - N/A   Clear
1:55 PM 60.8 °F - 30.2 °F 31% 29.69 in 10.0 mi NE 3.5 mph - N/A   Mostly Cloudy
2:15 PM 59.0 °F - 28.4 °F 31% 29.69 in 10.0 mi East 5.8 mph - N/A   Overcast
2:35 PM 59.0 °F - 28.4 °F 31% 29.69 in 10.0 mi West 6.9 mph - N/A   Overcast
2:55 PM 59.0 °F - 28.4 °F 31% 29.68 in 10.0 mi SE 6.9 mph - N/A   Overcast
3:15 PM 59.0 °F - 28.4 °F 31% 29.68 in 10.0 mi ESE 6.9 mph - N/A   Mostly Cloudy
3:35 PM 60.8 °F - 30.2 °F 31% 29.67 in 10.0 mi SSE 5.8 mph - N/A   Mostly Cloudy
3:55 PM 59.0 °F - 28.4 °F 31% 29.67 in 10.0 mi Calm Calm - N/A   Scattered Clouds
4:15 PM 60.8 °F - 30.2 °F 31% 29.65 in 10.0 mi West 3.5 mph - N/A   Partly Cloudy
4:35 PM 60.8 °F - 30.2 °F 31% 29.64 in 10.0 mi SW 3.5 mph - N/A   Clear
4:55 PM 60.8 °F - 28.4 °F 29% 29.63 in 10.0 mi Calm Calm - N/A   Scattered Clouds
5:15 PM 60.8 °F - 28.4 °F 29% 29.63 in 10.0 mi East 4.6 mph - N/A   Mostly Cloudy
5:35 PM 60.8 °F - 28.4 °F 29% 29.62 in 10.0 mi ENE 5.8 mph - N/A   Overcast
5:55 PM 59.0 °F - 28.4 °F 31% 29.62 in 10.0 mi ESE 16.1 mph 23.0 mph N/A   Overcast
6:15 PM 57.2 °F - 30.2 °F 36% 29.63 in 10.0 mi SSW 8.1 mph - N/A   Overcast
6:35 PM 57.2 °F - 30.2 °F 36% 29.62 in 10.0 mi South 4.6 mph - N/A   Overcast
6:55 PM 57.2 °F - 28.4 °F 33% 29.62 in 10.0 mi East 8.1 mph - N/A   Overcast
7:15 PM 57.2 °F - 30.2 °F 36% 29.62 in 10.0 mi Calm Calm - N/A   Overcast
7:35 PM 55.4 °F - 30.2 °F 38% 29.62 in 10.0 mi Calm Calm - N/A   Overcast
7:55 PM 55.4 °F - 30.2 °F 38% 29.62 in 10.0 mi South 11.5 mph - N/A   Overcast
8:15 PM 53.6 °F - 35.6 °F 51% 29.63 in 10.0 mi WSW 10.4 mph - N/A   Overcast
8:35 PM 53.6 °F - 35.6 °F 51% 29.64 in 10.0 mi West 6.9 mph - N/A   Overcast
8:55 PM 51.8 °F - 35.6 °F 54% 29.63 in 10.0 mi Calm Calm - N/A   Overcast
9:15 PM 50.0 °F - 39.2 °F 66% 29.63 in 10.0 mi North 4.6 mph - N/A   Overcast
9:35 PM 50.0 °F - 37.4 °F 62% 29.61 in 10.0 mi North 4.6 mph - N/A   Overcast
9:55 PM 48.2 °F - 39.2 °F 71% 29.61 in 10.0 mi ENE 5.8 mph - N/A   Overcast
10:15 PM 48.2 °F - 41.0 °F 76% 29.61 in 10.0 mi WSW 4.6 mph - N/A   Overcast
10:35 PM 48.2 °F - 39.2 °F 71% 29.60 in 10.0 mi Calm Calm - N/A   Overcast
11:15 PM 48.2 °F - 39.2 °F 71% 29.59 in 10.0 mi West 3.5 mph - N/A   Overcast
11:35 PM 48.2 °F - 39.2 °F 71% 29.59 in 10.0 mi SSW 4.6 mph - N/A   Overcast
11:55 PM 48.2 °F - 39.2 °F 71% 29.59 in 10.0 mi South 4.6 mph - N/A   Overcast